This is the latest recevied weather packets stored in our database for station/object VU35KB-13. If no packets are shown the sender has not sent any weather packets the latest 10 day(s).
| Time | Temp. | Humidity | Pressure | Rain* | Wind** | Luminosity | Snow |
|---|---|---|---|---|---|---|---|
| 1787413495 | 27.78° C | 75% | 910.2 hPa | - | - | - | - |
| 1787412591 | 27.78° C | 76% | 910.1 hPa | - | - | - | - |
| 1787411687 | 27.78° C | 76% | 910 hPa | - | - | - | - |
| 1787410783 | 27.78° C | 75% | 909.9 hPa | - | - | - | - |
| 1787409879 | 27.78° C | 75% | 909.6 hPa | - | - | - | - |
| 1787408975 | 27.78° C | 74% | 909.4 hPa | - | - | - | - |
| 1787408071 | 27.78° C | 75% | 909.4 hPa | - | - | - | - |
| 1787407167 | 27.78° C | 76% | 909.1 hPa | - | - | - | - |
| 1787406263 | 27.78° C | 75% | 908.9 hPa | - | - | - | - |
| 1787405358 | 27.78° C | 75% | 908.7 hPa | - | - | - | - |
| 1787404454 | 27.78° C | 75% | 908.6 hPa | - | - | - | - |
| 1787403550 | 27.78° C | 75% | 908.4 hPa | - | - | - | - |
| 1787402646 | 27.78° C | 75% | 908.3 hPa | - | - | - | - |
| 1787401742 | 27.78° C | 73% | 908.2 hPa | - | - | - | - |
| 1787400838 | 27.78° C | 75% | 907.8 hPa | - | - | - | - |
| 1787399934 | 27.22° C | 76% | 907.5 hPa | - | - | - | - |
| 1787399030 | 27.22° C | 74% | 907.2 hPa | - | - | - | - |
| 1787398126 | 26.67° C | 76% | 907.1 hPa | - | - | - | - |
| 1787397222 | 26.67° C | 76% | 907 hPa | - | - | - | - |
| 1787396318 | 26.67° C | 76% | 906.9 hPa | - | - | - | - |
| 1787395413 | 26.67° C | 75% | 906.9 hPa | - | - | - | - |
| 1787394510 | 27.22° C | 72% | 906.9 hPa | - | - | - | - |
| 1787393605 | 27.22° C | 73% | 907 hPa | - | - | - | - |
| 1787392701 | 27.22° C | 72% | 907 hPa | - | - | - | - |
| 1787391797 | 27.22° C | 72% | 907.2 hPa | - | - | - | - |
* Rain since midnight (hover to see other rain measurements)
** Current wind speed in m/s (hover to see current wind gust speed)